[[{"header":{"parameterUnit":"m.s-1","parameterCategory":1,"la1":30.2991,"la2":30.254,"lo1":-89.0895,"lo2":-89.0444,"dy":0.0017,"dx":0.0017,"nx":28,"ny":28,"refTime":"2024-10-18T09:00:00:Z","depth":0,"parameterNumber":2,"parameterNumberName":"U-component_of_WINDS"},"data":[0,0,0,0,0,0,0,0,0,0,0,0,0,0,0,0,0,0,0,0,0,0,0,0,0,0,0,0,0,0,0,0,0,0,0,0,0,0,0,0,0,0,0,0,0,0,0,0,0,0,0,0,0,0,0,0,0,0,-4.8712,-4.8711,0,-4.8671,-4.8671,-4.8671,-4.8502,-4.8498,-4.8494,-4.8491,-4.8452,-4.8455,-4.8457,0,0,0,0,0,0,0,0,0,0,0,0,0,-4.8647,-4.8649,-4.8712,-4.8711,-4.8711,-4.8672,-4.8671,-4.867,-4.8503,-4.8498,-4.8493,-4.8489,-4.8451,-4.8455,-4.8458,0,0,0,0,0,0,0,0,0,0,0,0,0,-4.8648,-4.865,-4.8712,-4.8622,-4.8614,-4.8672,-4.8671,-4.867,-4.8504,-4.8498,-4.8492,-4.8487,-4.845,-4.8454,-4.8458,-4.86,0,0,-4.847,-4.8472,0,0,0,0,0,0,0,0,-4.8648,-4.8651,-4.8636,-4.8629,-4.8619,-4.8586,-4.8634,-4.8647,-4.8505,-4.8546,-4.8491,-4.8484,-4.8502,-4.8501,-4.8506,-4.8598,-4.8596,-4.847,-4.8473,-4.8475,-4.8476,0,0,0,0,0,0,0,-4.8648,-4.8651,-4.8696,-4.8636,-4.8626,-4.8585,-4.8579,-4.8636,-4.8557,-4.8542,-4.8529,-4.8527,-4.8496,-4.8503,-4.8504,-4.8596,-4.847,-4.8474,-4.8476,-4.8478,-4.8803,-4.8809,0,0,0,0,0,0,-4.866,-4.8652,-4.8697,-4.8695,-4.8619,-4.8591,-4.8584,-4.8603,-4.8556,-4.8543,-4.8532,-4.8519,-4.8499,-4.85,-4.8502,-4.8665,-4.8475,-4.8478,-4.848,-4.8796,-4.8804,-4.8811,0,0,0,0,0,0,-4.866,-4.8666,-4.8699,-4.867,-4.8671,-4.8599,-4.8621,-4.8605,-4.8611,-4.8549,-4.8534,-4.8553,-4.8495,-4.8497,-4.8577,-4.8662,-4.848,-4.8484,-4.8789,-4.8799,-4.8807,-4.8993,0,0,0,0,0,0,-4.8659,-4.8667,-4.8719,-4.8673,-4.8673,-4.8774,-4.8626,-4.8608,-4.8618,-4.8601,-4.8565,-4.8553,-4.849,-4.8572,-4.8581,-4.8664,-4.8487,-4.8781,-4.8793,-4.8804,-4.8979,-4.9008,-4.9033,0,0,0,0,0,-4.8657,-4.8774,-4.8723,-4.8729,-4.8737,-4.8779,-4.8779,-4.8704,-4.8626,-4.8679,-4.8638,-4.8554,-4.8651,-4.8581,-4.859,-4.8676,-4.8775,-4.879,-4.8804,-4.8967,-4.9002,-4.9032,0,0,0,0,0,0,-4.8833,-4.8766,-4.8708,-4.8813,-4.8803,-4.875,-4.8814,-4.8743,-4.8755,-4.8739,-4.8645,-4.8638,-4.8732,-4.8712,-4.8635,-4.8811,-4.8699,-4.8716,-4.8821,-4.8854,-4.888,-4.8883,-4.849,0,0,0,0,0,-4.8884,-4.8922,-4.8862,-4.896,-4.8958,-4.8888,-4.8903,-4.8845,-4.8831,-4.8826,-4.8791,-4.8782,-4.881,-4.883,-4.8853,-4.8976,-4.8966,-4.9039,-4.9066,-4.9088,-4.9103,-4.9168,-4.92,-4.8857,-4.8857,-4.8857,0,0,-4.8989,-4.8957,-4.8987,-4.8995,-4.898,-4.9023,-4.8885,-4.8936,-4.8967,-4.8834,-4.8907,-4.8882,-4.8865,-4.8968,-4.9011,-4.8953,-4.9196,-4.9106,-4.9124,-4.9127,-4.9186,-4.9218,-4.9247,-4.8867,-4.8865,-4.8863,0,0,-4.9204,-4.9183,-4.9263,-4.9251,-4.923,-4.9183,-4.9203,-4.9161,-4.9139,-4.9211,-4.9112,-4.9148,-4.9199,-4.9191,-4.9194,-4.9407,-4.9331,-4.9417,-4.9556,-4.962,-4.9647,-4.967,-4.9747,-4.9776,-4.9432,-4.9433,-4.9433,0,-4.9338,-4.9398,-4.9314,-4.9371,-4.9378,-4.9259,-4.934,-4.9333,-4.9321,-4.9329,-4.9264,-4.9326,-4.9306,-4.9405,-4.9457,-4.9463,-4.9484,-4.9421,-4.965,-4.9672,-4.9693,-4.9765,-4.9795,-4.9444,-4.9442,-4.9441,-4.944,0,-4.9564,-4.9607,-4.9675,-4.9666,-4.968,-4.9749,-4.9677,-4.9702,-4.9644,-4.9604,-4.968,-4.9652,-4.9667,-4.9686,-4.963,-4.9778,-4.9743,-4.9666,-4.9552,-4.9738,-4.9804,-4.9831,-4.9459,-4.9455,-4.9452,-4.9449,0,0,-4.9888,-4.9832,-4.9858,-4.9853,-4.9821,-4.9854,-4.9919,-4.9932,-4.9956,-4.9952,-5.0005,-5.0051,-4.9979,-4.9983,-4.9925,-4.9981,-5.0153,-4.9896,-4.9894,-4.9946,-5.0316,-5.0375,-5.0408,-5.0102,-5.0107,-5.0111,-5.0317,0,-5.0092,-5.0198,-5.0125,-5.0244,-5.0284,-5.0172,-5.0228,-5.0216,-5.0181,-5.021,-5.0171,-5.0206,-5.0108,-5.0109,-5.016,-5.0122,-5.0226,-5.0105,-5.0151,-5.0154,-5.0159,-5.0442,-5.0504,-5.0701,-5.0343,-5.0347,-5.035,0,-5.0345,-5.0352,-5.0475,-5.0437,-5.0451,-5.0503,-5.051,-5.0539,-5.0524,-5.0494,-5.0499,-5.0427,-5.0489,-5.0377,-5.0462,-5.0381,-5.0396,-5.038,-5.0386,-5.0388,-5.0264,-5.0453,-5.0761,-5.0791,-5.039,-5.0387,-5.0384,0,-5.057,-5.061,-5.0689,-5.0688,-5.0645,-5.0684,-5.0668,-5.0647,-5.066,-5.0667,-5.0675,-5.069,-5.0699,-5.0713,-5.0647,-5.0571,-5.0742,-5.0623,-5.072,-5.0722,-5.0761,-5.0759,-5.1077,-5.077,-5.077,-5.0769,-5.0768,0,-5.0806,-5.0886,-5.0789,-5.0838,-5.0924,-5.084,-5.0929,-5.0901,-5.0883,-5.0925,-5.083,-5.0872,-5.0782,-5.0816,-5.0765,-5.0844,-5.0848,-5.0827,-5.0813,-5.0836,-5.0839,-5.0844,-5.0829,-5.0777,-5.0775,-5.0774,-5.0772,0,-5.1072,-5.101,-5.1088,-5.1041,-5.1031,-5.1098,-5.1058,-5.1101,-5.106,-5.1115,-5.1123,-5.1058,-5.1093,-5.1029,-5.1055,-5.1021,-5.1132,-5.1096,-5.1137,-5.1127,-5.1227,-5.1219,-5.1559,-5.16,-5.1267,-5.1271,-5.1273,0,-5.1227,-5.1285,-5.1245,-5.1266,-5.1255,-5.129,-5.1304,-5.1224,-5.1242,-5.1229,-5.1275,-5.1301,-5.1318,-5.1378,-5.1335,-5.1355,-5.1319,-5.1437,-5.1321,-5.1343,-5.1322,-5.1319,-5.1325,-5.1461,-5.1465,-5.1468,-5.1471,0,-5.1509,-5.1476,-5.1498,-5.1511,-5.1529,-5.1535,-5.1534,-5.1557,-5.1473,-5.1498,-5.1531,-5.1545,-5.1571,-5.1599,-5.1609,-5.1593,-5.152,-5.1508,-5.1531,-5.1556,-5.1577,-5.1568,-5.1202,-5.15,-5.1498,-5.1495,-5.1494,-5.1493,-5.1724,-5.1771,-5.175,-5.1779,-5.177,-5.1772,-5.1811,-5.1774,-5.18,-5.1815,-5.1767,-5.1812,-5.1797,-5.1802,-5.1795,-5.183,-5.1777,-5.1811,-5.182,-5.1829,-5.1846,-5.1572,-5.1831,-5.183,-5.1829,-5.1829,-5.1828,0,-5.2001,-5.1983,-5.201,-5.2012,-5.2035,-5.1962,-5.1958,-5.1982,-5.2023,-5.2014,-5.2032,-5.2072,-5.2099,-5.2058,-5.2078,-5.2114,-5.2081,-5.2122,-5.2119,-5.2117,-5.1891,-5.1869,-5.2149,-5.2149,-5.2149,-5.2149,-5.2149,-5.2148,-5.2149,-5.2225,-5.219,-5.2262,-5.2242,-5.2285,-5.2289,-5.2291,-5.2283,-5.2332,-5.2353,-5.2326,-5.2304,-5.2322,-5.2344,-5.2332,-5.2344,-5.2398,-5.2374,-5.2164,-5.2132,-5.2103,-5.2081,-5.2401,-5.2401,-5.2596,-5.2598,-5.2599]},{"header":{"parameterUnit":"m.s-1","parameterCategory":1,"la1":30.2991,"la2":30.254,"lo1":-89.0895,"lo2":-89.0444,"dy":0.0017,"dx":0.0017,"nx":28,"ny":28,"refTime":"2024-10-18T09:00:00:Z","depth":0,"parameterNumber":3,"parameterNumberName":"V-component_of_WINDS"},"data":[0,0,0,0,0,0,0,0,0,0,0,0,0,0,0,0,0,0,0,0,0,0,0,0,0,0,0,0,0,0,0,0,0,0,0,0,0,0,0,0,0,0,0,0,0,0,0,0,0,0,0,0,0,0,0,0,0,0,-1.0814,-1.0814,0,-1.0862,-1.0862,-1.0863,-1.0849,-1.0848,-1.0847,-1.0846,-1.0897,-1.09,-1.0902,0,0,0,0,0,0,0,0,0,0,0,0,0,-1.0711,-1.0713,-1.0814,-1.0814,-1.0815,-1.0862,-1.0862,-1.0863,-1.0849,-1.0848,-1.0847,-1.0846,-1.0897,-1.0899,-1.0902,0,0,0,0,0,0,0,0,0,0,0,0,0,-1.0757,-1.0714,-1.0814,-1.0814,-1.0814,-1.0861,-1.0862,-1.0863,-1.085,-1.0848,-1.0847,-1.0845,-1.0896,-1.0899,-1.0902,-1.0953,0,0,-1.0913,-1.0914,0,0,0,0,0,0,0,0,-1.0755,-1.0761,-1.0813,-1.0814,-1.0814,-1.0848,-1.0845,-1.0893,-1.085,-1.0836,-1.0846,-1.0844,-1.0882,-1.0887,-1.0899,-1.0956,-1.0958,-1.0913,-1.0915,-1.0917,-1.0918,0,0,0,0,0,0,0,-1.0751,-1.0759,-1.0833,-1.0814,-1.0815,-1.0812,-1.0816,-1.0854,-1.0867,-1.0837,-1.0836,-1.0842,-1.0882,-1.0896,-1.09,-1.0959,-1.0913,-1.0916,-1.0918,-1.092,-1.1059,-1.106,0,0,0,0,0,0,-1.0748,-1.0756,-1.0831,-1.0834,-1.078,-1.0815,-1.082,-1.0839,-1.0867,-1.0869,-1.0843,-1.0841,-1.0891,-1.0896,-1.0902,-1.0964,-1.0917,-1.092,-1.0922,-1.1057,-1.1059,-1.1061,0,0,0,0,0,0,-1.0745,-1.0754,-1.0829,-1.0795,-1.0804,-1.0818,-1.0839,-1.084,-1.0854,-1.0871,-1.0873,-1.0855,-1.089,-1.0897,-1.094,-1.0965,-1.0922,-1.0925,-1.1055,-1.1058,-1.106,-1.1087,0,0,0,0,0,0,-1.0742,-1.0754,-1.0773,-1.0795,-1.0806,-1.0867,-1.084,-1.0842,-1.0859,-1.0857,-1.0882,-1.0885,-1.0889,-1.0935,-1.0944,-1.0969,-1.0927,-1.1053,-1.1056,-1.1059,-1.1084,-1.109,-1.1095,0,0,0,0,0,-1.0739,-1.0779,-1.0774,-1.0783,-1.0831,-1.0868,-1.0875,-1.0878,-1.0861,-1.0881,-1.0892,-1.0884,-1.096,-1.094,-1.0949,-1.0976,-1.1052,-1.1055,-1.1059,-1.1082,-1.1089,-1.1095,0,0,0,0,0,0,-1.0761,-1.0782,-1.0777,-1.0826,-1.0845,-1.0866,-1.0891,-1.0885,-1.0911,-1.0908,-1.0911,-1.0917,-1.0961,-1.0972,-1.0949,-1.1026,-1.1004,-1.1009,-1.1018,-1.1025,-1.103,-1.1028,-1.093,0,0,0,0,0,-1.0771,-1.08,-1.0817,-1.0858,-1.0868,-1.0878,-1.0895,-1.0895,-1.0916,-1.0924,-1.0938,-1.0959,-1.0987,-1.1006,-1.1033,-1.1085,-1.109,-1.1107,-1.1113,-1.1118,-1.1123,-1.1151,-1.1159,-1.1073,-1.1073,-1.1073,0,0,-1.0793,-1.0809,-1.0827,-1.0863,-1.0878,-1.0908,-1.0885,-1.0918,-1.094,-1.0929,-1.0971,-1.0982,-1.1005,-1.1052,-1.1074,-1.1063,-1.1148,-1.1122,-1.1126,-1.1129,-1.1156,-1.1164,-1.1171,-1.1076,-1.1075,-1.1075,0,0,-1.0849,-1.0863,-1.0899,-1.0914,-1.0937,-1.0943,-1.0951,-1.0973,-1.0979,-1.1021,-1.1013,-1.1039,-1.1088,-1.1105,-1.112,-1.118,-1.1174,-1.1188,-1.1219,-1.1246,-1.1253,-1.1259,-1.1281,-1.1289,-1.1194,-1.1194,-1.1194,0,-1.0875,-1.0919,-1.0919,-1.0952,-1.0968,-1.0958,-1.0995,-1.1009,-1.104,-1.1052,-1.1039,-1.1099,-1.1114,-1.1166,-1.118,-1.1192,-1.1202,-1.1187,-1.1252,-1.1258,-1.1264,-1.1285,-1.1293,-1.1195,-1.1195,-1.1195,-1.1195,0,-1.0949,-1.0979,-1.1006,-1.1034,-1.1053,-1.1088,-1.1094,-1.1113,-1.1111,-1.1118,-1.116,-1.1177,-1.1207,-1.1219,-1.1218,-1.127,-1.1263,-1.1251,-1.1229,-1.1273,-1.1294,-1.1302,-1.1198,-1.1197,-1.1197,-1.1196,0,0,-1.1023,-1.1049,-1.1059,-1.1072,-1.1095,-1.1119,-1.1152,-1.1181,-1.1198,-1.1218,-1.1248,-1.1288,-1.1276,-1.1293,-1.1294,-1.1317,-1.1364,-1.1302,-1.1303,-1.1314,-1.1423,-1.1434,-1.1443,-1.1359,-1.1361,-1.1362,-1.1422,0,-1.1082,-1.1141,-1.1141,-1.1196,-1.1224,-1.1213,-1.1243,-1.126,-1.1267,-1.1292,-1.13,-1.1329,-1.1311,-1.1321,-1.1344,-1.1354,-1.1386,-1.1349,-1.1387,-1.1389,-1.1384,-1.1453,-1.1465,-1.1521,-1.1429,-1.1431,-1.1432,0,-1.1159,-1.1182,-1.1239,-1.1257,-1.1269,-1.1295,-1.1321,-1.1345,-1.1364,-1.1367,-1.1385,-1.1381,-1.1415,-1.139,-1.1438,-1.1413,-1.1428,-1.1434,-1.1437,-1.1442,-1.1415,-1.1462,-1.1539,-1.1548,-1.1444,-1.1443,-1.1442,0,-1.1209,-1.1253,-1.1293,-1.1304,-1.1326,-1.1345,-1.1354,-1.1372,-1.1389,-1.1411,-1.1422,-1.1448,-1.1463,-1.1483,-1.1487,-1.1468,-1.1535,-1.151,-1.154,-1.154,-1.1556,-1.1556,-1.1638,-1.1563,-1.1563,-1.1563,-1.1562,0,-1.1276,-1.1312,-1.1316,-1.1341,-1.138,-1.1379,-1.1418,-1.1427,-1.1442,-1.1468,-1.146,-1.1485,-1.1487,-1.1513,-1.1515,-1.1555,-1.1561,-1.1565,-1.1566,-1.1567,-1.1567,-1.1579,-1.1576,-1.1565,-1.1564,-1.1564,-1.1563,0,-1.134,-1.1344,-1.1387,-1.1403,-1.1407,-1.1436,-1.145,-1.1474,-1.1478,-1.1512,-1.152,-1.1528,-1.1558,-1.1562,-1.1597,-1.1599,-1.1646,-1.1642,-1.164,-1.164,-1.167,-1.1668,-1.1764,-1.1777,-1.1692,-1.1693,-1.1694,0,-1.1384,-1.1411,-1.1429,-1.1446,-1.1457,-1.1484,-1.15,-1.1499,-1.1517,-1.154,-1.1561,-1.1589,-1.1612,-1.166,-1.167,-1.1696,-1.1694,-1.1725,-1.1698,-1.1698,-1.1696,-1.1695,-1.1698,-1.1732,-1.1733,-1.1733,-1.1734,0,-1.1462,-1.1461,-1.1485,-1.151,-1.1529,-1.1549,-1.1567,-1.1581,-1.1583,-1.1603,-1.1633,-1.165,-1.1685,-1.1714,-1.1739,-1.175,-1.1743,-1.1742,-1.1751,-1.1753,-1.1752,-1.1754,-1.1657,-1.1741,-1.174,-1.1739,-1.1739,-1.1739,-1.1518,-1.1541,-1.1557,-1.1584,-1.1597,-1.1614,-1.1637,-1.1644,-1.1668,-1.1696,-1.1694,-1.1727,-1.1744,-1.1778,-1.179,-1.1815,-1.1805,-1.1817,-1.1821,-1.1824,-1.1828,-1.1745,-1.182,-1.182,-1.182,-1.1819,-1.1819,0,-1.1596,-1.1605,-1.163,-1.1655,-1.1676,-1.1664,-1.1684,-1.1702,-1.1731,-1.1747,-1.1769,-1.1803,-1.183,-1.184,-1.1867,-1.1886,-1.1883,-1.1893,-1.1893,-1.1895,-1.1835,-1.1825,-1.1895,-1.1895,-1.1895,-1.1895,-1.1895,-1.1895,-1.164,-1.1679,-1.168,-1.1725,-1.1734,-1.1766,-1.1778,-1.1793,-1.1806,-1.1844,-1.1866,-1.1872,-1.1886,-1.1913,-1.1937,-1.194,-1.1951,-1.1962,-1.1963,-1.1907,-1.19,-1.1893,-1.1884,-1.1964,-1.1964,-1.2022,-1.2023,-1.2023]}]]